DW8338 Weather Reports


time (UTC)temp
C
wind
direction
speed
KPH
gust
KPH
rain 1hr
cm
rain 24hr
cm
rain mn
cm
humidity
%
barometer
mb
20260507044304 14 213 3.2 4.8 0.00 0.00 0.00 80 1008.6
20260507043804 14 192 3.2 4.8 0.00 0.00 0.00 80 1008.4
20260507043303 14 178 1.6 4.8 0.00 0.00 0.00 80 1008.4
20260507042804 14 198 3.2 4.8 0.00 0.00 0.00 80 1008.4
20260507042306 14 210 3.2 4.8 0.00 0.00 0.00 80 1008.4
20260507041804 14 196 1.6 11.3 0.00 0.00 0.00 80 1008.4
20260507041304 15 183 4.8 9.7 0.00 0.00 0.00 80 1008.3
20260507040804 15 153 3.2 11.3 0.00 0.00 0.00 79 1008.3
20260507040303 15 130 1.6 4.8 0.00 0.00 0.00 79 1008.3
20260507035804 15 163 3.2 4.8 0.00 0.00 0.00 79 1008.3
20260507034304 15 169 3.2 8.0 0.00 0.00 0.00 79 1008.3
20260507033803 15 154 4.8 9.7 0.00 0.00 0.00 78 1008.3
20260507033304 15 185 3.2 9.7 0.00 0.00 0.00 78 1008.3
20260507032804 15 132 0.0 3.2 0.00 0.00 0.00 78 1008.4
20260507031804 15 190 1.6 9.7 0.00 0.00 0.00 77 1008.4
20260507031304 15 165 4.8 8.0 0.00 0.00 0.00 77 1008.2
20260507030804 15 167 6.4 11.3 0.00 0.00 0.00 77 1008.2
20260507030304 15 180 4.8 11.3 0.00 0.00 0.00 77 1008.2
20260507025803 15 168 4.8 9.7 0.00 0.00 0.00 78 1008.2
20260507025306 15 152 3.2 4.8 0.00 0.00 0.00 78 1008.2
20260507024804 15 129 0.0 1.6 0.00 0.00 0.00 77 1008.2
20260507024303 15 168 0.0 4.8 0.00 0.00 0.00 77 1008.2
20260507023804 15 156 3.2 4.8 0.00 0.00 0.00 77 1008.2
20260507023304 15 187 0.0 3.2 0.00 0.00 0.00 77 1008.1
20260507022804 15 170 1.6 3.2 0.00 0.00 0.00 77 1008.1
20260507022306 15 181 3.2 4.8 0.00 0.00 0.00 77 1008.1
20260507021804 15 175 3.2 4.8 0.00 0.00 0.00 77 1008.1
20260507021304 15 197 4.8 8.0 0.00 0.00 0.00 77 1008.1
20260507020804 15 198 4.8 8.0 0.00 0.00 0.00 76 1008.1
20260507020303 15 182 3.2 4.8 0.00 0.00 0.00 76 1008.1
20260507015306 15 158 6.4 11.3 0.00 0.00 0.00 76 1008.3
20260507014804 15 177 4.8 11.3 0.00 0.00 0.00 76 1008.3
20260507014304 15 191 4.8 11.3 0.00 0.00 0.00 76 1008.3
20260507013804 15 198 4.8 12.9 0.00 0.00 0.00 75 1008.3
20260507013304 15 179 6.4 11.3 0.00 0.00 0.00 75 1008.4
20260507012804 15 187 6.4 11.3 0.00 0.00 0.00 75 1008.4
20260507012306 15 195 8.0 12.9 0.00 0.00 0.00 75 1008.4
20260507011804 15 189 8.0 11.3 0.00 0.00 0.00 75 1008.4
20260507011304 15 178 6.4 11.3 0.00 0.00 0.00 75 1008.5
20260507010804 15 192 4.8 8.0 0.00 0.00 0.00 75 1008.6
20260507005804 15 160 3.2 8.0 0.00 0.00 0.00 75 1008.7
20260507005305 15 184 4.8 9.7 0.00 0.00 0.00 75 1008.7
20260507004804 15 182 6.4 11.3 0.00 0.00 0.00 75 1008.7
20260507004304 15 161 6.4 11.3 0.00 0.00 0.00 75 1008.8
20260507003804 15 176 4.8 8.0 0.00 0.00 0.00 75 1008.8
20260507002306 15 197 8.0 11.3 0.00 0.00 0.00 74 1008.8
20260507001804 15 184 8.0 12.9 0.00 0.00 0.00 74 1008.8
20260507001303 15 202 4.8 12.9 0.00 0.00 0.00 74 1008.8
20260507000804 15 179 8.0 14.5 0.00 0.00 0.00 74 1009.0
20260507000306 15 160 8.0 16.1 0.00 0.00 0.00 74 1009.0
20260506235804 15 163 8.0 19.3 0.00 0.00 0.00 74 1009.0
20260506235306 15 163 9.7 14.5 0.00 0.00 0.00 74 1009.0
20260506234804 15 167 8.0 14.5 0.00 0.00 0.00 74 1009.0
20260506234303 15 154 8.0 12.9 0.00 0.00 0.00 74 1009.0
20260506233304 16 177 8.0 12.9 0.00 0.00 0.00 73 1009.1
20260506232804 16 162 4.8 11.3 0.00 0.00 0.00 73 1009.1
20260506232306 16 187 3.2 9.7 0.00 0.00 0.00 73 1009.0
20260506231804 16 172 8.0 12.9 0.00 0.00 0.00 73 1009.1
20260506231303 16 181 4.8 9.7 0.00 0.00 0.00 73 1009.1
20260506230804 16 165 4.8 9.7 0.00 0.00 0.00 73 1009.1
20260506230304 16 199 4.8 9.7 0.00 0.00 0.00 72 1009.1
20260506225804 16 186 3.2 8.0 0.00 0.00 0.00 72 1009.2
20260506225305 16 191 6.4 9.7 0.00 0.00 0.00 71 1009.2
20260506224804 16 194 4.8 9.7 0.00 0.00 0.00 71 1009.1
20260506224303 16 185 6.4 11.3 0.00 0.00 0.00 70 1009.2
20260506223804 16 180 8.0 12.9 0.00 0.00 0.00 69 1009.2
20260506221804 16 164 8.0 16.1 0.00 0.00 0.00 66 1009.1
20260506221304 16 168 6.4 11.3 0.00 0.00 0.00 65 1009.0
20260506220803 17 177 6.4 9.7 0.00 0.00 0.00 64 1009.0
20260506220303 17 169 4.8 11.3 0.00 0.00 0.00 63 1009.0
20260506215804 17 182 8.0 12.9 0.00 0.00 0.00 63 1009.0
20260506215306 17 163 8.0 12.9 0.00 0.00 0.00 62 1009.1
20260506214303 17 180 9.7 12.9 0.00 0.00 0.00 61 1009.0
20260506213804 17 180 8.0 14.5 0.00 0.00 0.00 60 1009.0
20260506212804 18 172 6.4 11.3 0.00 0.00 0.00 58 1008.9
20260506212306 18 179 6.4 11.3 0.00 0.00 0.00 58 1008.7
20260506211804 18 164 6.4 12.9 0.00 0.00 0.00 57 1008.7
20260506211304 18 174 6.4 11.3 0.00 0.00 0.00 57 1008.7
20260506210804 18 198 4.8 9.7 0.00 0.00 0.00 57 1008.6
20260506210304 18 189 4.8 11.3 0.00 0.00 0.00 56 1008.4
20260506205803 18 189 3.2 9.7 0.00 0.00 0.00 56 1008.4
20260506204304 18 226 4.8 19.3 0.00 0.00 0.00 55 1008.2
20260506203804 18 233 3.2 9.7 0.00 0.00 0.00 55 1008.2
20260506203305 18 208 4.8 11.3 0.00 0.00 0.00 55 1008.2
20260506202804 19 201 6.4 11.3 0.00 0.00 0.00 54 1008.1
20260506202306 19 189 8.0 16.1 0.00 0.00 0.00 54 1008.1
20260506201804 19 211 6.4 12.9 0.00 0.00 0.00 54 1008.0
20260506201304 19 199 8.0 16.1 0.00 0.00 0.00 53 1008.0
20260506200804 19 205 4.8 12.9 0.00 0.00 0.00 53 1008.0
20260506200304 20 218 9.7 14.5 0.00 0.00 0.00 53 1008.0
20260506195804 20 224 8.0 19.3 0.00 0.00 0.00 52 1008.0
20260506194804 20 219 6.4 16.1 0.00 0.00 0.00 51 1007.9
20260506194304 20 226 8.0 12.9 0.00 0.00 0.00 50 1007.8
20260506193803 20 221 4.8 9.7 0.00 0.00 0.00 50 1007.7
20260506193304 20 197 9.7 19.3 0.00 0.00 0.00 50 1007.7
20260506192804 20 233 11.3 19.3 0.00 0.00 0.00 50 1007.6
20260506192305 21 233 14.5 22.5 0.00 0.00 0.00 51 1007.5
20260506191303 21 225 11.3 19.3 0.00 0.00 0.00 50 1007.4
20260506190804 21 224 12.9 20.9 0.00 0.00 0.00 49 1007.3
20260506190304 21 226 8.0 16.1 0.00 0.00 0.00 48 1007.3
20260506185804 21 240 11.3 22.5 0.00 0.00 0.00 48 1007.3
20260506185306 21 245 9.7 20.9 0.00 0.00 0.00 47 1007.3
20260506184804 22 257 11.3 16.1 0.00 0.00 0.00 47 1007.2
20260506184304 22 255 9.7 16.1 0.00 0.00 0.00 47 1007.2
20260506183804 22 227 16.1 25.7 0.00 0.00 0.00 47 1007.2
20260506183304 22 253 11.3 19.3 0.00 0.00 0.00 46 1007.2
20260506182804 22 253 11.3 22.5 0.00 0.00 0.00 46 1007.2
20260506182306 22 241 14.5 22.5 0.00 0.00 0.00 45 1007.2
20260506181803 22 201 9.7 19.3 0.00 0.00 0.00 46 1007.2
20260506181303 22 212 14.5 25.7 0.00 0.00 0.00 46 1007.1
20260506180804 22 236 14.5 24.1 0.00 0.00 0.00 44 1007.1
20260506180304 22 241 16.1 22.5 0.00 0.00 0.00 43 1007.1
20260506175804 23 227 14.5 20.9 0.00 0.00 0.00 42 1007.1
20260506175306 23 231 11.3 19.3 0.00 0.00 0.00 41 1007.1
20260506174804 23 258 8.0 14.5 0.00 0.00 0.00 41 1007.1
20260506174304 23 239 11.3 16.1 0.00 0.00 0.00 40 1007.1
20260506173804 23 238 12.9 19.3 0.00 0.00 0.00 41 1007.1
20260506172306 23 241 11.3 19.3 0.00 0.00 0.00 41 1007.3
20260506171803 23 178 9.7 25.7 0.00 0.00 0.00 41 1007.3
20260506171303 24 220 11.3 22.5 0.00 0.00 0.00 40 1007.3
20260506170804 24 204 9.7 19.3 0.00 0.00 0.00 40 1007.3
20260506170304 24 219 8.0 19.3 0.00 0.00 0.00 40 1007.3
20260506165803 24 223 11.3 20.9 0.00 0.00 0.00 40 1007.3
20260506165305 24 211 14.5 20.9 0.00 0.00 0.00 40 1007.3
20260506164304 25 218 9.7 19.3 0.00 0.00 0.00 40 1007.5
20260506163803 24 193 9.7 25.7 0.00 0.00 0.00 40 1007.5
20260506163304 24 202 14.5 22.5 0.00 0.00 0.00 39 1007.4
20260506162803 24 198 17.7 27.4 0.00 0.00 0.00 38 1007.4
20260506162306 25 160 9.7 19.3 0.00 0.00 0.00 38 1007.4
20260506161304 25 142 8.0 14.5 0.00 0.00 0.00 34 1007.5
20260506160803 25 212 8.0 11.3 0.00 0.00 0.00 34 1007.5
20260506160304 25 129 6.4 12.9 0.00 0.00 0.00 34 1007.5
20260506155803 25 172 4.8 14.5 0.00 0.00 0.00 36 1007.5
20260506154804 24 107 6.4 14.5 0.00 0.00 0.00 35 1007.6
20260506153804 24 122 4.8 12.9 0.00 0.00 0.00 36 1007.7
20260506152804 24 77 11.3 19.3 0.00 0.00 0.00 36 1008.1
20260506152305 24 72 4.8 14.5 0.00 0.00 0.00 37 1008.1
20260506151803 23 126 1.6 11.3 0.00 0.00 0.00 38 1008.1
20260506151304 24 128 9.7 12.9 0.00 0.00 0.00 37 1008.2
20260506150804 24 179 11.3 16.1 0.00 0.00 0.00 36 1008.2
20260506150305 24 134 1.6 4.8 0.00 0.00 0.00 36 1008.3
20260506145803 24 134 4.8 8.0 0.00 0.00 0.00 36 1008.3
20260506145305 24 178 3.2 11.3 0.00 0.00 0.00 37 1008.4
20260506144803 24 187 4.8 12.9 0.00 0.00 0.00 36 1008.6
20260506143803 23 156 4.8 12.9 0.00 0.00 0.00 37 1008.8
20260506143304 23 160 9.7 19.3 0.00 0.00 0.00 37 1008.8
20260506142804 23 171 4.8 9.7 0.00 0.00 0.00 37 1008.8
20260506141804 23 70 3.2 9.7 0.00 0.00 0.00 37 1009.0
20260506141304 23 71 4.8 12.9 0.00 0.00 0.00 37 1009.1
20260506140304 23 109 11.3 19.3 0.00 0.00 0.00 37 1009.2
20260506135804 23 78 6.4 14.5 0.00 0.00 0.00 37 1009.2
20260506135306 23 156 4.8 14.5 0.00 0.00 0.00 37 1009.3
20260506134803 23 193 6.4 14.5 0.00 0.00 0.00 37 1009.3
20260506134304 23 155 9.7 19.3 0.00 0.00 0.00 37 1009.3
20260506133804 23 123 4.8 12.9 0.00 0.00 0.00 36 1009.5
20260506133304 23 268 0.0 11.3 0.00 0.00 0.00 37 1009.5
20260506132804 23 18 1.6 9.7 0.00 0.00 0.00 38 1009.6
20260506132307 23 315 6.4 11.3 0.00 0.00 0.00 38 1009.7
20260506131304 22 136 4.8 11.3 0.00 0.00 0.00 38 1009.8
20260506130804 22 187 9.7 16.1 0.00 0.00 0.00 38 1009.9
20260506130304 22 170 8.0 14.5 0.00 0.00 0.00 38 1010.0
20260506125804 22 149 4.8 16.1 0.00 0.00 0.00 38 1010.0
20260506125305 22 215 8.0 19.3 0.00 0.00 0.00 39 1010.0
20260506124804 22 239 11.3 19.3 0.00 0.00 0.00 38 1010.0
20260506123803 22 38 3.2 9.7 0.00 0.00 0.00 37 1010.0
20260506123304 22 78 1.6 9.7 0.00 0.00 0.00 38 1010.1
20260506122804 22 60 6.4 14.5 0.00 0.00 0.00 39 1010.1
20260506122306 22 65 6.4 11.3 0.00 0.00 0.00 37 1010.2
20260506121804 22 319 6.4 16.1 0.00 0.00 0.00 38 1010.2
20260506121303 22 58 3.2 11.3 0.00 0.00 0.00 38 1010.2
20260506120304 22 265 3.2 8.0 0.00 0.00 0.00 39 1010.4
20260506115803 22 277 6.4 12.9 0.00 0.00 0.00 41 1010.6
20260506115306 21 227 8.0 11.3 0.00 0.00 0.00 41 1010.6
20260506114804 22 269 8.0 19.3 0.00 0.00 0.00 39 1010.6
20260506114303 22 345 3.2 9.7 0.00 0.00 0.00 40 1010.6
20260506113804 22 277 3.2 8.0 0.00 0.00 0.00 41 1010.6
20260506113303 22 303 4.8 8.0 0.00 0.00 0.00 41 1010.6
20260506112804 22 291 8.0 12.9 0.00 0.00 0.00 40 1010.6
20260506112306 22 275 1.6 4.8 0.00 0.00 0.00 42 1010.7
20260506111304 22 28 0.0 3.2 0.00 0.00 0.00 42 1010.8
20260506110304 21 89 1.6 4.8 0.00 0.00 0.00 45 1011.0
20260506105305 21 292 3.2 4.8 0.00 0.00 0.00 45 1011.0
20260506104804 21 300 3.2 4.8 0.00 0.00 0.00 45 1011.0
20260506104304 21 246 1.6 3.2 0.00 0.00 0.00 47 1011.0
20260506103804 21 48 3.2 8.0 0.00 0.00 0.00 47 1011.0
20260506103304 21 26 3.2 9.7 0.00 0.00 0.00 47 1011.2
20260506102804 21 14 4.8 8.0 0.00 0.00 0.00 47 1011.1
20260506101803 20 166 3.2 9.7 0.00 0.00 0.00 50 1011.2
20260506100803 20 333 1.6 8.0 0.00 0.00 0.00 50 1011.3
20260506100303 21 36 4.8 9.7 0.00 0.00 0.00 49 1011.3
20260506095804 21 171 1.6 3.2 0.00 0.00 0.00 49 1011.3
20260506095305 20 80 0.0 4.8 0.00 0.00 0.00 51 1011.3
20260506094303 20 79 3.2 8.0 0.00 0.00 0.00 52 1011.3
20260506093804 19 73 1.6 4.8 0.00 0.00 0.00 53 1011.3
20260506093304 19 98 3.2 8.0 0.00 0.00 0.00 54 1011.3
20260506092306 18 78 0.0 4.8 0.00 0.00 0.00 56 1011.3
20260506091803 18 96 3.2 8.0 0.00 0.00 0.00 56 1011.3
20260506091303 18 110 1.6 9.7 0.00 0.00 0.00 56 1011.3
20260506090804 18 77 1.6 4.8 0.00 0.00 0.00 57 1011.3
20260506090304 18 223 1.6 4.8 0.00 0.00 0.00 57 1011.4
20260506085803 17 50 1.6 4.8 0.00 0.00 0.00 58 1011.4
20260506084803 17 17 4.8 9.7 0.00 0.00 0.00 59 1011.4
20260506084303 17 348 3.2 4.8 0.00 0.00 0.00 59 1011.4
20260506083804 17 43 1.6 9.7 0.00 0.00 0.00 59 1011.4
20260506082804 17 43 3.2 4.8 0.00 0.00 0.00 61 1011.4
20260506082305 16 314 4.8 8.0 0.00 0.00 0.00 61 1011.4
20260506081803 16 348 3.2 9.7 0.00 0.00 0.00 62 1011.4
20260506081304 16 37 3.2 8.0 0.00 0.00 0.00 62 1011.4
20260506080804 16 343 6.4 9.7 0.00 0.00 0.00 62 1011.4
20260506080304 16 348 6.4 11.3 0.00 0.00 0.00 63 1011.4
20260506073304 16 353 8.0 9.7 0.00 0.00 0.00 65 1011.5
20260506072804 16 15 6.4 11.3 0.00 0.00 0.00 64 1011.5
20260506072306 16 17 4.8 9.7 0.00 0.00 0.00 65 1011.5
20260506071804 15 33 3.2 8.0 0.00 0.00 0.00 65 1011.5
20260506071304 15 344 3.2 8.0 0.00 0.00 0.00 66 1011.4
20260506070803 15 29 3.2 11.3 0.00 0.00 0.00 66 1011.3
20260506062306 14 0 4.8 8.0 0.00 0.00 0.00 68 1011.3
20260506061804 14 353 4.8 11.3 0.00 0.00 0.00 68 1011.3
20260506060803 14 6 6.4 11.3 0.00 0.00 0.00 68 1011.2
20260506060303 14 8 8.0 11.3 0.00 0.00 0.00 68 1011.1
20260506051304 13 337 4.8 8.0 0.00 0.00 0.00 69 1011.0
20260506050803 13 344 3.2 8.0 0.00 0.00 0.00 69 1011.0
20260506050304 14 315 3.2 4.8 0.00 0.00 0.00 69 1010.9
20260506044804 14 317 4.8 4.8 0.00 0.00 0.00 68 1011.0